Location: Saluda
(35.2377°N, 82.3468°W)
Time: 05:07:55
(UTC+00:00)

Tiros 1 - Pass Details

Date: 10 October 2022
Orbit: 629 x 662 km, 48.4° (Epoch: 09 December)

Event Time Altitude Azimuth Distance (km) Brightness Sun altitude
Exits shadow 09:32:20 12° 173° (S) 1,914 9.5 -25.0°
Drops below altitude 10° 09:32:43 10° 170° (S) 2,033 9.7 -25.0°
Sets 09:35:18 0° 158° (SSE) 2,932 10.7 -24.4°
